EW1164 Weather Reports


time (UTC)temp
F
wind
direction
speed
knots
gust
knots
rain 1hr
in
rain 24hr
in
rain mn
in
humidity
%
barometer
mb
20260504202045 78 59 1.7 4.3 0.00 0.00 0.00 27 1007.4
20260504201544 78 29 0.9 3.5 0.00 0.00 0.00 29 1007.5
20260504201042 78 82 0.0 4.3 0.00 0.00 0.00 28 1007.5
20260504200543 77 306 1.7 3.5 0.00 0.00 0.00 29 1007.6
20260504200043 77 261 0.0 4.3 0.00 0.00 0.00 30 1007.5
20260504195543 77 30 1.7 4.3 0.00 0.00 0.00 29 1007.6
20260504195042 76 50 1.7 4.3 0.00 0.00 0.00 29 1007.6
20260504194549 76 34 0.9 5.2 0.00 0.00 0.00 30 1007.6
20260504194042 76 80 1.7 5.2 0.00 0.00 0.00 29 1007.7
20260504193542 76 18 1.7 4.3 0.00 0.00 0.00 29 1007.6
20260504193042 77 116 0.9 2.6 0.00 0.00 0.00 30 1007.6
20260504192541 77 266 0.0 3.5 0.00 0.00 0.00 29 1007.7
20260504192040 75 30 0.9 7.0 0.00 0.00 0.00 29 1007.7
20260504191551 75 19 2.6 7.0 0.00 0.00 0.00 29 1007.8
20260504191040 76 80 2.6 6.1 0.00 0.00 0.00 29 1007.9
20260504190539 76 105 0.9 6.1 0.00 0.00 0.00 28 1007.9
20260504190044 75 295 1.7 5.2 0.00 0.00 0.00 29 1007.9
20260504185538 75 161 0.9 3.5 0.00 0.00 0.00 31 1007.9
20260504185038 75 215 0.9 6.1 0.00 0.00 0.00 32 1008.0
20260504184547 75 355 0.9 6.1 0.00 0.00 0.00 31 1008.1
20260504184037 75 73 0.9 6.1 0.00 0.00 0.00 32 1008.1
20260504183537 74 59 1.7 5.2 0.00 0.00 0.00 33 1008.1
20260504183035 74 171 1.7 6.1 0.00 0.00 0.00 32 1008.1
20260504182535 74 33 1.7 6.1 0.00 0.00 0.00 34 1008.2
20260504182034 73 92 0.9 4.3 0.00 0.00 0.00 34 1008.2
20260504181536 73 96 1.7 4.3 0.00 0.00 0.00 34 1008.2
20260504181033 73 221 0.0 6.1 0.00 0.00 0.00 34 1008.3
20260504180532 73 49 0.9 4.3 0.00 0.00 0.00 34 1008.2
20260504180032 71 65 0.0 4.3 0.00 0.00 0.00 41 1008.3
20260504175530 69 201 1.7 3.5 0.00 0.00 0.00 45 1008.3
20260504175030 69 244 2.6 3.5 0.00 0.00 0.00 43 1008.3
20260504174530 69 254 0.9 4.3 0.00 0.00 0.00 43 1008.4
20260504174029 68 185 2.6 4.3 0.00 0.00 0.00 47 1008.4
20260504173528 68 205 1.7 4.3 0.00 0.00 0.00 47 1008.4
20260504173027 67 211 0.9 3.5 0.00 0.00 0.00 46 1008.4
20260504172525 67 192 1.7 4.3 0.00 0.00 0.00 48 1008.4
20260504172023 66 207 1.7 4.3 0.00 0.00 0.00 49 1008.4
20260504171524 65 200 1.7 3.5 0.00 0.00 0.00 49 1008.5
20260504171022 65 253 0.0 2.6 0.00 0.00 0.00 51 1008.4
20260504170520 64 202 0.0 3.5 0.00 0.00 0.00 51 1008.5
20260504151004 51 231 0.0 0.9 0.00 0.00 0.00 77 1009.0
20260504150504 50 231 0.9 0.9 0.00 0.00 0.00 77 1009.0
20260504141001 47 184 0.0 1.7 0.00 0.00 0.00 83 1008.9
20260504140502 47 185 0.0 0.9 0.00 0.00 0.00 85 1008.9
20260504130554 45 30 0.0 0.9 0.00 0.00 0.00 87 1008.3
20260504110538 47 38 0.0 1.7 0.00 0.00 0.00 81 1007.9
20260504100529 49 37 0.0 1.7 0.00 0.00 0.00 79 1007.8
20260504081514 52 34 0.0 1.7 0.00 0.00 0.00 71 1007.4
20260504081015 53 34 0.9 1.7 0.00 0.00 0.00 70 1007.4
20260504080514 53 32 0.0 1.7 0.00 0.00 0.00 69 1007.4
20260504050601 62 32 0.0 1.7 0.00 0.00 0.00 50 1007.3
20260504045600 63 32 0.9 1.7 0.00 0.00 0.00 49 1007.4
20260504045100 63 31 0.9 1.7 0.00 0.00 0.00 48 1007.3
20260504044600 63 38 0.0 1.7 0.00 0.00 0.00 48 1007.3
20260504044100 64 38 0.0 0.9 0.00 0.00 0.00 48 1007.3
20260504043600 64 38 0.0 1.7 0.00 0.00 0.00 48 1007.3
20260504043105 64 36 0.0 1.7 0.00 0.00 0.00 47 1007.3
20260504042559 65 36 0.0 1.7 0.00 0.00 0.00 47 1007.3
20260504042100 65 36 0.0 1.7 0.00 0.00 0.00 45 1007.3
20260504041559 66 36 0.9 1.7 0.00 0.00 0.00 43 1007.2
20260504041059 67 36 0.0 1.7 0.00 0.00 0.00 42 1007.2
20260504040559 67 36 0.0 1.7 0.00 0.00 0.00 42 1007.3
20260504040132 68 36 0.9 0.9 0.00 0.00 0.00 40 1007.2
20260504035559 68 36 0.9 0.9 0.00 0.00 0.00 40 1007.2
20260504035102 69 36 0.9 1.7 0.00 0.00 0.00 39 1007.1
20260504034603 70 35 0.9 1.7 0.00 0.00 0.00 37 1007.1
20260504034058 71 35 0.0 1.7 0.00 0.00 0.00 35 1007.1
20260504033558 71 35 0.9 1.7 0.00 0.00 0.00 35 1007.1
20260504033059 71 36 0.9 0.9 0.00 0.00 0.00 34 1007.0
20260504032558 72 36 0.9 1.7 0.00 0.00 0.00 34 1006.9
20260504032102 72 36 0.9 1.7 0.00 0.00 0.00 33 1007.0
20260504031614 72 35 0.9 1.7 0.00 0.00 0.00 34 1006.9
20260504031057 73 31 0.9 2.6 0.00 0.00 0.00 32 1006.9
20260504030557 73 32 0.9 2.6 0.00 0.00 0.00 33 1007.0
20260504030057 73 340 0.9 1.7 0.00 0.00 0.00 32 1006.9
20260504025557 74 302 0.0 1.7 0.00 0.00 0.00 31 1007.0
20260504025058 75 315 0.0 1.7 0.00 0.00 0.00 33 1007.0
20260504024603 76 325 0.0 3.5 0.00 0.00 0.00 31 1007.0
20260504024056 76 267 0.9 3.5 0.00 0.00 0.00 29 1007.0
20260504023558 77 250 1.7 6.1 0.00 0.00 0.00 28 1007.0
20260504023056 77 275 1.7 6.1 0.00 0.00 0.00 28 1007.0
20260504022556 78 257 2.6 5.2 0.00 0.00 0.00 30 1007.0
20260504022054 78 242 2.6 3.5 0.00 0.00 0.00 28 1007.0
20260504021554 79 225 0.9 2.6 0.00 0.00 0.00 28 1007.0
20260504021053 79 209 1.7 2.6 0.00 0.00 0.00 25 1007.1
20260504020555 79 208 0.9 2.6 0.00 0.00 0.00 26 1007.1
20260504020108 80 234 0.9 2.6 0.00 0.00 0.00 25 1007.1
20260504015557 80 240 0.9 2.6 0.00 0.00 0.00 27 1007.2
20260504015054 80 196 1.7 2.6 0.00 0.00 0.00 25 1007.2
20260504014552 80 247 0.9 3.5 0.00 0.00 0.00 25 1007.3
20260504014051 80 233 1.7 3.5 0.00 0.00 0.00 25 1007.3
20260504013551 80 248 0.9 3.5 0.00 0.00 0.00 24 1007.4
20260504013051 80 212 1.7 3.5 0.00 0.00 0.00 25 1007.5
20260504012550 80 253 0.9 2.6 0.00 0.00 0.00 25 1007.5
20260504012050 80 241 1.7 3.5 0.00 0.00 0.00 26 1007.5
20260504011549 80 200 1.7 3.5 0.00 0.00 0.00 24 1007.5
20260504011048 80 186 1.7 2.6 0.00 0.00 0.00 25 1007.6
20260504010547 80 197 0.9 2.6 0.00 0.00 0.00 24 1007.7
20260504010050 81 209 0.9 4.3 0.00 0.00 0.00 23 1007.7
20260504005546 81 198 1.7 4.3 0.00 0.00 0.00 24 1007.8
20260504005049 81 250 1.7 3.5 0.00 0.00 0.00 25 1007.8
20260504004546 80 245 1.7 4.3 0.00 0.00 0.00 24 1007.8
20260504004046 80 241 2.6 4.3 0.00 0.00 0.00 24 1007.9
20260504003544 81 266 1.7 4.3 0.00 0.00 0.00 24 1008.0
20260504003045 80 259 2.6 4.3 0.00 0.00 0.00 24 1008.0
20260504002544 80 303 0.9 4.3 0.00 0.00 0.00 24 1008.1
20260504002043 81 269 0.9 4.3 0.00 0.00 0.00 25 1008.1
20260504001550 81 261 0.9 5.2 0.00 0.00 0.00 24 1008.1
20260504001042 81 232 2.6 5.2 0.00 0.00 0.00 24 1008.2
20260504000541 81 250 0.9 4.3 0.00 0.00 0.00 24 1008.3
20260504000040 81 344 0.9 4.3 0.00 0.00 0.00 25 1008.3
20260503235540 81 243 1.7 4.3 0.00 0.00 0.00 25 1008.3
20260503235043 80 252 2.6 7.8 0.00 0.00 0.00 27 1008.3
20260503234600 80 244 3.5 7.8 0.00 0.00 0.00 25 1008.4
20260503234038 80 202 2.6 6.1 0.00 0.00 0.00 24 1008.4
20260503233541 81 155 1.7 4.3 0.00 0.00 0.00 25 1008.5
20260503233045 81 344 0.9 3.5 0.00 0.00 0.00 25 1008.6
20260503232536 82 117 1.7 2.6 0.00 0.00 0.00 24 1008.7
20260503232036 81 126 0.0 4.3 0.00 0.00 0.00 27 1008.8
20260503231535 79 302 1.7 4.3 0.00 0.00 0.00 24 1008.9
20260503231034 80 280 0.9 6.1 0.00 0.00 0.00 24 1008.9
20260503230535 80 232 2.6 6.1 0.00 0.00 0.00 24 1009.0
20260503230038 80 349 0.9 3.5 0.00 0.00 0.00 24 1009.0
20260503225531 80 52 0.9 4.3 0.00 0.00 0.00 26 1009.1
20260503225030 79 165 1.7 8.7 0.00 0.00 0.00 25 1009.2
20260503224530 79 254 3.5 9.6 0.00 0.00 0.00 24 1009.3
20260503224030 80 233 4.3 9.6 0.00 0.00 0.00 25 1009.3
20260503223527 80 243 3.5 7.0 0.00 0.00 0.00 25 1009.6
20260503223028 80 266 3.5 5.2 0.00 0.00 0.00 26 1009.6
20260503222527 79 13 0.0 6.1 0.00 0.00 0.00 25 1009.6
20260503222025 80 244 3.5 6.1 0.00 0.00 0.00 25 1009.7
20260503221529 80 240 3.5 7.8 0.00 0.00 0.00 24 1009.7
20260503221024 79 221 4.3 7.8 0.00 0.00 0.00 25 1009.8
20260503220525 79 324 1.7 7.8 0.00 0.00 0.00 24 1009.9
20260503220024 79 219 2.6 6.1 0.00 0.00 0.00 25 1009.9
20260503215523 80 265 0.9 7.0 0.00 0.00 0.00 25 1010.0
20260503215024 79 195 3.5 7.0 0.00 0.00 0.00 24 1010.1
20260503214522 79 200 2.6 7.0 0.00 0.00 0.00 25 1010.2
20260503214022 79 224 4.3 7.0 0.00 0.00 0.00 25 1010.3
20260503213522 80 340 0.9 7.0 0.00 0.00 0.00 24 1010.4
20260503213023 79 192 2.6 9.6 0.00 0.00 0.00 28 1010.4
20260503212521 79 236 3.5 7.8 0.00 0.00 0.00 26 1010.5
20260503212019 79 253 2.6 7.0 0.00 0.00 0.00 25 1010.6
20260503211518 79 263 0.9 7.0 0.00 0.00 0.00 26 1010.6
20260503211017 79 267 0.9 7.0 0.00 0.00 0.00 25 1010.8
20260503210517 78 229 3.5 7.0 0.00 0.00 0.00 24 1010.8
20260503210016 78 296 2.6 6.1 0.00 0.00 0.00 25 1010.9
20260503205516 78 239 2.6 7.8 0.00 0.00 0.00 24 1010.9
20260503205015 79 251 4.3 7.8 0.00 0.00 0.00 25 1011.0
20260503204514 79 243 2.6 7.8 0.00 0.00 0.00 25 1011.2
20260503204013 79 246 4.3 7.8 0.00 0.00 0.00 24 1011.2
20260503203514 79 246 1.7 7.0 0.00 0.00 0.00 25 1011.2
20260503203014 77 290 3.5 7.0 0.00 0.00 0.00 23 1011.4
20260503202511 79 257 1.7 5.2 0.00 0.00 0.00 25 1011.4